Flag for Netherlands Weather past 2 weeks in The Hague, Netherlands

Now
75 °F

Passing clouds.


Feels Like: 78 °F
Forecast: 58 / 64 °F
Wind: 17 mph from West

Location: Rotterdam Zestienhoven Airport

Current Time: Jul 7, 2015 at 4:04:51 PM

Latest Report: Jul 7, 2015 at 3:25 PM


Visibility: N/A

Pressure: 29.74 "Hg

Humidity: 57%

Dew point: 59 °F

Location of The HagueLocation

Historic Weather in The Hague — Graph

°F

The Hague temperature yesterday

Maximum temperature yesterday: 73 °F (at 5:55 PM)
Minimum temperature yesterday: 59 °F (at 3:25 AM)
Average temperature yesterday: 65 °F

Past Weeks' High & Low Weather Summary

 TemperatureHumidityPressure
High93 °F (Jul 1, 4:25 PM)100% (Jun 26, 3:55 AM)30.27 "Hg (Jun 26, 3:55 AM)
Low50 °F (Jun 23, 3:55 AM)28% (Jul 1, 5:25 PM)29.71 "Hg (Jun 22, 5:25 PM)
Average67 °F70%30.07 "Hg
* Reported Jun 22 2:25 PM — Jul 7 2:55 PM, The Hague, Weather by CustomWeather, © 2015

Note: Actual official high and low records may vary slightly from our data, if they occured in-between our weather recording intervals... More about our weather records

Advertising

The Hague weather history for previous 24 hours

 ConditionsComfort  
Time TempWeatherWind HumidityBarometerVisibility
2:55 PM
Tue, Jul 7
75 °FMild.16 mph61%29.77 "HgN/A
2:25 PM73 °FScattered clouds.8 mph65%29.77 "HgN/A
1:55 PM73 °FClear.7 mph65%29.77 "HgN/A
1:25 PM72 °FClear.9 mph65%29.77 "HgN/A
12:55 PM73 °FPassing clouds.7 mph65%29.80 "HgN/A
12:25 PM72 °FClear.7 mph65%29.77 "HgN/A
11:55 AM73 °FScattered clouds.12 mph57%29.80 "HgN/A
11:25 AM72 °FPassing clouds.12 mph57%29.80 "HgN/A
10:55 AM73 °FLight rain. Passing clouds.12 mph57%29.80 "HgN/A
10:25 AM75 °FPassing clouds.8 mph50%29.80 "HgN/A
9:55 AM75 °FClear.8 mph54%29.80 "HgN/A
9:25 AM73 °FClear.7 mph53%29.83 "HgN/A
8:55 AM72 °FClear.9 mph61%29.83 "HgN/A
8:25 AM70 °FClear.6 mph64%29.86 "HgN/A
7:55 AM64 °FMild.2 mph83%29.86 "HgN/A
7:25 AM61 °FClear.3 mph88%29.89 "HgN/A
6:55 AM59 °FCool.2 mph94%29.89 "HgN/A
6:25 AM57 °FClear.1 mph94%29.89 "HgN/A
5:55 AM55 °FCool.1 mph100%29.89 "HgN/A
5:25 AM55 °FCool.1 mph100%29.92 "HgN/A
4:55 AM55 °FCool.2 mph100%29.92 "HgN/A
4:25 AM55 °FCool.1 mph100%29.95 "HgN/A
3:55 AM55 °FClear.5 mph100%29.95 "HgN/A
3:25 AM57 °FClear.2 mph94%29.95 "HgN/A
2:55 AM57 °FCool.1 mph94%29.98 "HgN/A
2:25 AM57 °FCool.1 mph94%29.98 "HgN/A
1:55 AM59 °FClear.2 mph88%29.98 "HgN/A
1:25 AM59 °FCool.2 mph88%30.01 "HgN/A
12:55 AM59 °FClear.2 mph82%30.01 "HgN/A
12:25 AM61 °FCool.3 mph77%30.01 "HgN/A
11:55 PM
Mon, Jul 6
63 °FMild.3 mph73%30.04 "HgN/A
11:25 PM61 °FCool.2 mph77%30.04 "HgN/A
10:55 PM61 °FCool.2 mph77%30.04 "HgN/A
10:25 PM63 °FMild.1 mph77%30.04 "HgN/A
9:55 PM64 °FClear.2 mph68%30.04 "HgN/A
9:25 PM66 °FMild.2 mph64%30.04 "HgN/A
8:55 PM66 °FClear.3 mph68%30.07 "HgN/A
8:25 PM68 °FClear.5 mph60%30.07 "HgN/A
7:55 PM70 °FMild.9 mph57%30.07 "HgN/A
7:25 PM72 °FMild.10 mph57%30.07 "HgN/A
6:55 PM72 °FMild.9 mph57%30.09 "HgN/A
6:25 PM72 °FPassing clouds.9 mph57%30.09 "HgN/A
5:55 PM73 °FPassing clouds.9 mph57%30.09 "HgN/A
5:25 PM72 °FPassing clouds.9 mph61%30.09 "HgN/A
4:55 PM72 °FPassing clouds.12 mph57%30.12 "HgN/A
4:25 PM72 °FPassing clouds.10 mph57%30.12 "HgN/A
Weather by CustomWeather, © 2015

See weather overviewHow to use our weather pages